Location: Archemont
(49.1579°N, 1.7598°E)
Time: 10:31:41
(UTC+00:00)

Altair - Pass Details

Date: 23 April 2024
Orbit: 1501 x 1682 km, 47.2° (Epoch: 17 May)

Event Time Altitude Azimuth Distance (km) Brightness Sun altitude
Rises 18:12:31 0° 231° (SW) 4,924 10.8 6.3°
Reaches altitude 10° 18:15:45 10° 228° (SW) 3,930 10.2 5.8°
Maximum altitude 18:25:32 58° 153° (SSE) 1,874 7.9 4.2°
Drops below altitude 10° 18:35:03 10° 78° (ENE) 3,831 9.1 2.7°
Sets 18:38:10 0° 75° (ENE) 4,793 9.6 2.2°
